This demonstration page uses our WeatherBlox Daily Observations layout. Learn more.

Left ArrowRight Arrow

40.92945, -100.16068

Hourly Observations for December 3, 2022

Temp ( °F °C ) Dew Point ( °F °C ) Humidity (%) Winds ( mph kmh ) Pressure ( in mb ) Visibility ( mi km ) Precip ( " mm )
12:15 am 00:15 Clear 11 -11.9 6 -14.4 82 82 WNW 8 13 30.58 1036 10 16 0.00 0.00
12:35 am 00:35 Clear 11 -11.9 6 -14.3 82 82 W 6 9 30.59 1036 10 16 0.00 0.00
12:55 am 00:55 Clear 11 -11.7 6 -14.2 82 82 WNW 5 7 30.59 1036 10 16 0.00 0.00
1:15 am 01:15 Clear 9 -12.9 4 -15.3 82 82 W 5 7 30.62 1037 10 16 0.00 0.00
1:35 am 01:35 Clear 10 -12.5 5 -14.9 82 82 W 8 13 30.61 1037 10 16 0.00 0.00
1:55 am 01:55 Clear 8 -13.1 4 -15.6 81 81 W 6 9 30.63 1037 10 16 0.00 0.00
2:15 am 02:15 Clear 9 -12.9 5 -15.2 83 83 W 7 11 30.65 1038 10 16 0.00 0.00
2:35 am 02:35 Clear 9 -13 5 -15.2 83 83 W 6 9 30.66 1038 10 16 0.00 0.00
2:55 am 02:55 Clear 10 -12.3 5 -14.8 81 81 W 5 7 30.66 1038 10 16 0.00 0.00
3:15 am 03:15 Clear 10 -12.3 6 -14.7 82 82 WNW 5 7 30.65 1038 10 16 0.00 0.00
3:35 am 03:35 Clear 5 -14.8 1 -17 83 83 Calm 30.69 1039 10 16 0.00 0.00
3:55 am 03:55 Clear 6 -14.6 1 -17.1 81 81 S 5 7 30.69 1039 10 16 0.00 0.00
4:15 am 04:15 Clear 6 -14.7 2 -16.8 84 84 SSW 5 7 30.70 1039 10 16 0.00 0.00
4:35 am 04:35 Clear 7 -14 3 -15.9 85 85 Calm 30.69 1039 10 16 0.00 0.00
4:55 am 04:55 Clear 6 -14.6 2 -16.6 85 85 Calm 30.70 1040 10 16 0.00 0.00
5:15 am 05:15 Clear 6 -14.3 2 -16.6 83 83 SW 5 7 30.71 1040 10 16 0.00 0.00
5:35 am 05:35 Clear 9 -12.7 6 -14.4 87 87 SW 9 15 30.69 1039 10 16 0.00 0.00
5:55 am 05:55 Clear 13 -10.4 10 -12.5 84 84 WSW 6 9 30.68 1039 10 16 0.00 0.00
6:15 am 06:15 Clear 14 -10.1 10 -12.3 84 84 WSW 5 7 30.67 1038 10 16 0.00 0.00
6:35 am 06:35 Clear 13 -10.3 10 -12.3 85 85 SW 3 6 30.67 1039 10 16 0.00 0.00
6:55 am 06:55 Clear 13 -10.5 10 -12.5 85 85 WSW 5 7 30.69 1039 10 16 0.00 0.00
7:15 am 07:15 Clear 12 -10.9 8 -13.2 83 83 Calm 30.69 1039 10 16 0.00 0.00
7:35 am 07:35 Clear 10 -12.3 6 -14.7 82 82 NW 3 6 30.71 1040 10 16 0.00 0.00
7:55 am 07:55 Sunny 9 -13 5 -15 85 85 Calm 30.72 1040 10 16 0.00 0.00
8:15 am 08:15 Sunny 6 -14.3 3 -16.3 85 85 Calm 30.73 1041 10 16 0.00 0.00
8:35 am 08:35 Sunny 10 -12.5 6 -14.4 86 86 Calm 30.71 1040 10 16 0.00 0.00
8:55 am 08:55 Sunny 13 -10.5 10 -12.5 85 85 Calm 30.69 1039 10 16 0.00 0.00
9:15 am 09:15 Sunny 15 -9.2 11 -11.7 82 82 Calm 30.68 1039 10 16 0.00 0.00
9:35 am 09:35 Sunny 19 -7.4 13 -10.6 78 78 SW 3 6 30.65 1038 10 16 0.00 0.00
9:55 am 09:55 Sunny 22 -5.3 14 -10 69 69 Calm 30.62 1037 10 16 0.00 0.00
10:15 am 10:15 Sunny 26 -3.4 15 -9.6 62 62 SSW 3 6 30.59 1036 10 16 0.00 0.00
10:35 am 10:35 Sunny 31 -0.7 15 -9.3 52 52 SW 7 11 30.57 1035 10 16 0.00 0.00
10:55 am 10:55 Sunny 33 0.3 14 -10.1 45 45 SW 12 19 30.54 1034 10 16 0.00 0.00
11:15 am 11:15 Sunny 33 0.7 13 -10.5 43 43 SW 12 19 30.52 1034 10 16 0.00 0.00
11:35 am 11:35 Sunny 34 1.2 13 -10.5 41 41 SW 14 22 30.52 1033 10 16 0.00 0.00
11:55 am 11:55 Sunny 35 1.9 13 -10.4 40 40 SW 15 24 30.49 1033 10 16 0.00 0.00
12:15 pm 12:15 Sunny 35 1.8 13 -10.3 40 40 SSW 20 31 30.47 1032 10 16 0.00 0.00
12:35 pm 12:35 Sunny 35 1.8 14 -9.9 41 41 SW 17 28 30.46 1032 10 16 0.00 0.00
12:55 pm 12:55 Sunny 38 3.2 16 -9.1 40 40 SSW 14 22 30.43 1030 10 16 0.00 0.00
1:15 pm 13:15 Sunny 38 3.4 14 -9.9 37 37 SSW 17 28 30.42 1030 10 16 0.00 0.00
1:35 pm 13:35 Sunny 41 4.9 14 -10.1 33 33 SW 17 28 30.39 1029 10 16 0.00 0.00
1:55 pm 13:55 Sunny 43 6.1 13 -10.7 29 29 SSW 20 31 30.36 1028 10 16 0.00 0.00
2:15 pm 14:15 Sunny 43 6 11 -11.5 27 27 SSW 23 37 30.35 1028 10 16 0.00 0.00
2:35 pm 14:35 Sunny 44 6.8 11 -11.8 25 25 SSW 21 33 30.32 1027 10 16 0.00 0.00
2:55 pm 14:55 Sunny 44 6.6 9 -12.6 24 24 SSW 21 33 30.31 1027 10 16 0.00 0.00
3:15 pm 15:15 Sunny 44 6.7 9 -13 23 23 SW 21 33 30.30 1026 10 16 0.00 0.00
3:35 pm 15:35 Sunny 45 7.4 8 -13.6 21 21 SW 18 30 30.29 1026 10 16 0.00 0.00
3:55 pm 15:55 Sunny 45 7.3 8 -13.2 22 22 SW 20 31 30.30 1026 10 16 0.00 0.00
4:15 pm 16:15 Sunny 45 7 8 -13.1 22 22 SW 13 20 30.29 1026 10 16 0.00 0.00
4:35 pm 16:35 Sunny 43 6.1 8 -13.3 23 23 SW 15 24 30.30 1026 10 16 0.00 0.00
4:55 pm 16:55 Sunny 41 5.1 7 -13.7 24 24 WSW 7 11 30.31 1026 10 16 0.00 0.00
5:15 pm 17:15 Clear 39 4 7 -13.8 26 26 SSW 7 11 30.32 1027 10 16 0.00 0.00
5:35 pm 17:35 Clear 37 2.9 7 -13.8 28 28 SSW 10 17 30.32 1027 10 16 0.00 0.00
5:55 pm 17:55 Clear 37 2.9 7 -13.9 28 28 SSW 9 15 30.32 1027 10 16 0.00 0.00
6:15 pm 18:15 Clear 35 1.5 6 -14.3 30 30 SSW 6 9 30.33 1027 10 16 0.00 0.00
6:35 pm 18:35 Clear 36 2.1 7 -14.1 29 29 SSW 12 19 30.33 1027 10 16 0.00 0.00
6:55 pm 18:55 Clear 34 1 7 -14 31 31 SSW 9 15 30.35 1028 10 16 0.00 0.00
7:15 pm 19:15 Clear 34 1.3 7 -13.8 31 31 SSW 9 15 30.34 1027 10 16 0.00 0.00
7:35 pm 19:35 Clear 35 1.7 8 -13.6 31 31 SSW 9 15 30.32 1027 10 16 0.00 0.00
7:55 pm 19:55 Clear 36 2 8 -13.2 31 31 SSW 9 15 30.32 1027 10 16 0.00 0.00
8:15 pm 20:15 Clear 34 1.2 8 -13.2 33 33 SSW 5 7 30.33 1027 10 16 0.00 0.00
8:35 pm 20:35 Clear 32 0.1 8 -13.4 35 35 Calm 30.34 1027 10 16 0.00 0.00
8:55 pm 20:55 Clear 31 -0.7 8 -13.6 37 37 S 8 13 30.36 1028 10 16 0.00 0.00
9:15 pm 21:15 Clear 29 -1.5 8 -13.4 40 40 S 9 15 30.35 1028 10 16 0.00 0.00
9:35 pm 21:35 Clear 29 -1.7 8 -13.2 41 41 Calm 30.35 1028 10 16 0.00 0.00
9:55 pm 21:55 Clear 28 -2.4 8 -13.4 42 42 Calm 30.36 1028 10 16 0.00 0.00
10:15 pm 22:15 Clear 26 -3.1 8 -13.4 45 45 SSE 5 7 30.36 1028 10 16 0.00 0.00
10:35 pm 22:35 Clear 28 -2 8 -13.1 42 42 S 8 13 30.34 1027 10 16 0.00 0.00
10:55 pm 22:55 Clear 27 -3 8 -13.1 45 45 Calm 30.35 1028 10 16 0.00 0.00
11:15 pm 23:15 Clear 27 -2.8 8 -13.5 43 43 S 6 9 30.34 1027 10 16 0.00 0.00
11:35 pm 23:35 Clear 25 -3.8 8 -13.3 48 48 S 5 7 30.34 1027 10 16 0.00 0.00
11:55 pm 23:55 Clear 24 -4.5 8 -13.1 51 51 S 8 13 30.33 1027 10 16 0.00 0.00

Powered by AerisWeather